Wind_Speed
27 19 20 19 12 12 23 28 30 24 24 22 25 23 27 30 37 36 40 38 30 26 22 21 19 18 17 16 15 15 17 18
20 20 20 21 19 19 24 31 29 26 22 22 25 22 34 43 43 44 42 35 27 25 23 23 19 17 18 18 18 17 18 19
18 18 12 20 23 23 18 26 25 27 24 24 22 21 27 37 53 47 36 31 29 26 24 23 20 18 17 19 18 20 18 22
17 14 12 12 16 26 24 31 32 30 33 27 25 24 24 46 47 41 34 30 31 29 25 23 22 19 17 17 17 22 21 18
16 13 14 14 21 22 30 36 32 35 36 32 29 23 24 34 42 40 32 32 31 29 25 25 24 22 18 18 18 21 23 23
19 16 12 6 10 22 38 40 41 35 30 29 27 25 32 31 43 38 35 34 32 30 28 26 25 22 21 19 24 22 22 24
15 15 14 9 8 9 18 42 48 40 41 44 39 37 36 36 42 36 39 36 35 32 28 27 25 22 22 23 23 24 23 25
14 14 15 7 8 5 10 20 39 43 36 38 45 41 39 38 42 41 44 40 37 34 32 27 25 26 24 26 25 25 25 23
12 13 14 12 11 5 7 19 24 28 39 39 43 40 35 36 39 41 42 44 43 34 32 30 28 29 26 27 26 26 26 24
11 13 12 13 10 8 6 11 14 22 25 35 31 28 32 31 35 39 42 48 45 36 34 34 32 30 31 30 28 27 27 26
14 13 13 13 12 14 16 12 14 12 20 29 35 31 32 36 38 41 42 53 37 31 30 33 30 29 36 32 30 29 28 29
15 14 12 13 12 16 18 18 15 14 16 24 30 30 30 30 33 41 39 47 33 29 32 33 31 35 37 32 31 30 31 30
14 15 13 11 10 12 14 20 21 14 10 19 22 20 21 20 16 18 30 32 29 30 30 29 29 31 32 35 35 33 30 28
14 14 13 10 10 15 18 20 16 18 14 17 12 15 17 18 16 18 21 22 24 26 25 26 29 31 34 34 32 30 27 30
13 14 11 8 9 8 20 18 25 25 21 23 21 18 17 18 16 17 24 27 23 24 27 26 28 31 31 28 18 14 19 23
12 13 13 8 6 6 7 10 19 28 29 28 29 27 24 22 24 23 23 27 25 26 28 31 29 27 28 22 25 23 22 20
11 11 11 10 9 9 10 11 10 11 18 27 28 28 28 28 27 26 24 29 28 28 28 31 30 28 27 25 25 21 27 32
10 11 10 10 11 10 11 11 11 9 8 9 25 36 34 35 31 30 26 25 29 32 30 28 28 22 26 26 25 25 23 25
7 9 8 8 8 7 8 10 11 10 11 10 9 9 20 33 37 33 29 31 30 34 30 31 29 23 24 23 24 23 25 23
8 8 8 8 8 10 9 9 9 9 12 11 12 7 5 7 7 18 23 29 26 22 24 21 21 24 21 25 25 25 28 30
Wind_Direction
302 292 258 245 235 179 188 201 212 212 208 218 235 229 237 224 221 206 210 222 208 211 217 227 229 231 228 231 245 253 261 263
286 300 264 252 246 226 238 220 195 209 215 224 232 232 227 222 219 218 220 213 208 210 220 231 228 231 230 239 246 256 260 261
289 289 267 243 240 248 223 210 227 229 212 228 209 216 233 217 220 218 215 202 210 218 223 233 225 225 235 243 256 254 260 260
302 301 286 255 248 242 242 228 223 231 216 196 224 225 230 218 215 214 210 207 213 221 230 231 226 230 240 247 256 257 260 271
305 298 294 288 257 252 247 226 219 227 219 225 231 235 223 221 211 216 215 211 215 224 229 235 232 236 235 248 259 263 261 261
303 305 305 270 260 240 225 227 225 218 212 227 221 234 231 232 216 219 216 219 218 226 230 235 243 245 239 252 267 265 271 264
309 315 322 316 306 230 227 213 214 214 229 235 243 242 234 225 214 218 219 222 219 226 232 238 243 248 244 253 263 266 270 262
332 330 325 302 293 243 217 209 221 218 238 243 248 240 232 230 224 235 220 224 220 226 233 237 240 237 255 257 256 264 267 257
324 328 335 286 318 256 213 209 217 221 233 232 233 228 222 219 222 230 231 234 226 230 233 240 241 244 251 259 259 264 262 255
319 329 326 297 267 242 231 209 208 205 218 228 219 220 222 228 232 223 236 227 224 232 236 239 247 247 255 253 259 260 253 249
313 317 328 318 276 248 209 213 217 216 214 214 216 221 226 228 227 227 243 221 228 236 240 247 250 251 256 253 257 258 252 252
305 304 319 324 280 243 225 223 213 215 220 213 225 225 222 228 228 223 236 225 228 233 243 249 253 252 254 254 256 260 256 256
303 301 305 320 301 237 253 234 223 205 241 232 234 236 208 200 208 195 217 221 226 234 242 249 254 254 253 261 262 263 258 257
297 299 303 318 335 249 234 240 236 244 248 240 244 230 227 223 201 215 220 226 233 236 246 252 255 258 259 264 263 264 263 263
301 296 294 303 333 313 234 243 236 247 256 246 238 246 247 236 238 258 243 248 250 252 249 261 262 267 264 260 249 262 271 264
304 295 284 285 289 302 298 265 258 254 246 240 240 241 244 238 253 255 253 250 252 254 257 259 257 253 264 264 260 245 250 253
304 301 284 271 273 272 286 291 293 283 260 235 245 245 239 241 254 245 255 256 254 259 264 264 259 250 255 247 256 266 257 245
297 302 295 284 272 269 268 276 287 294 285 270 253 251 251 246 246 247 253 253 251 258 264 261 258 246 250 247 250 261 270 261
280 299 292 282 274 282 293 282 281 288 289 281 270 285 255 247 251 250 247 253 262 262 261 261 256 238 240 247 246 252 254 262
261 285 290 280 270 271 285 291 291 289 282 283 277 275 262 273 266 251 247 247 252 257 260 254 248 236 238 246 252 253 256 261
Height
5747 5748 5750 5750 5751 5750 5755 5755 5760 5764 5770 5775 5780 5781 5786 5789 5793 5797 5798 5802 5807 5810 5813 5815 5816 5817 5819 5820 5821 5823 5824 5826
5746 5743 5742 5742 5747 5748 5743 5751 5757 5760 5764 5770 5774 5778 5781 5785 5787 5790 5794 5799 5803 5806 5810 5811 5812 5814 5816 5816 5818 5819 5821 5822
5744 5742 5741 5743 5745 5746 5746 5749 5753 5756 5761 5767 5771 5774 5775 5778 5780 5784 5791 5795 5800 5803 5805 5807 5809 5811 5812 5813 5814 5816 5817 5818
5742 5740 5739 5740 5741 5739 5746 5747 5749 5754 5758 5762 5764 5768 5770 5772 5777 5782 5787 5792 5796 5800 5802 5803 5806 5807 5808 5810 5811 5813 5814 5814
5739 5738 5737 5734 5734 5734 5734 5738 5744 5750 5753 5758 5759 5764 5766 5769 5774 5778 5783 5788 5792 5797 5799 5801 5803 5804 5805 5807 5808 5809 5810 5810
5736 5734 5734 5734 5733 5731 5733 5734 5738 5744 5749 5751 5757 5761 5763 5767 5770 5775 5781 5785 5789 5793 5795 5797 5799 5800 5802 5804 5805 5805 5806 5806
5734 5732 5730 5728 5726 5726 5725 5725 5732 5739 5744 5748 5751 5757 5760 5763 5767 5771 5776 5782 5785 5789 5791 5793 5795 5796 5798 5798 5799 5800 5800 5801
5730 5728 5727 5727 5728 5725 5723 5724 5732 5737 5739 5743 5744 5751 5755 5760 5763 5767 5771 5775 5780 5784 5787 5789 5791 5793 5794 5794 5795 5795 5795 5796
5729 5727 5726 5726 5725 5723 5723 5725 5729 5731 5735 5737 5742 5746 5751 5755 5758 5761 5767 5771 5775 5779 5782 5785 5786 5788 5790 5790 5791 5791 5792 5793
5730 5727 5726 5725 5725 5725 5724 5725 5727 5729 5731 5734 5737 5742 5748 5751 5754 5757 5760 5764 5770 5774 5777 5780 5782 5784 5784 5785 5786 5787 5787 5787
5730 5726 5723 5722 5722 5722 5724 5725 5726 5728 5730 5733 5737 5740 5743 5744 5747 5752 5755 5760 5764 5768 5772 5775 5776 5780 5778 5780 5781 5782 5782 5783
5728 5726 5723 5720 5719 5721 5723 5724 5726 5727 5729 5732 5734 5737 5738 5740 5742 5746 5749 5756 5759 5763 5767 5769 5771 5774 5773 5775 5776 5777 5777 5778
5726 5725 5722 5720 5719 5719 5720 5723 5725 5726 5729 5731 5733 5734 5735 5737 5738 5741 5748 5753 5755 5759 5762 5764 5767 5767 5770 5770 5771 5771 5771 5772
5724 5722 5721 5718 5717 5718 5719 5722 5723 5724 5726 5729 5729 5731 5734 5737 5740 5744 5747 5750 5754 5757 5758 5760 5762 5763 5764 5765 5766 5766 5766 5767
5723 5721 5720 5718 5717 5717 5718 5719 5720 5723 5724 5727 5728 5729 5732 5734 5737 5740 5744 5747 5749 5752 5753 5755 5756 5756 5758 5760 5760 5762 5761 5761
5721 5721 5719 5718 5718 5718 5718 5718 5718 5719 5720 5721 5723 5725 5729 5731 5734 5737 5740 5742 5745 5746 5747 5750 5752 5750 5751 5753 5754 5758 5759 5759
5718 5718 5718 5717 5717 5717 5716 5716 5715 5713 5714 5716 5719 5721 5723 5726 5729 5731 5734 5737 5739 5740 5742 5744 5746 5744 5747 5748 5749 5752 5753 5755
5716 5716 5715 5715 5715 5715 5715 5714 5714 5713 5711 5713 5715 5718 5719 5722 5724 5727 5728 5730 5732 5734 5736 5737 5739 5740 5741 5742 5744 5747 5748 5748
5713 5714 5714 5714 5714 5713 5713 5713 5712 5712 5712 5712 5713 5712 5713 5717 5718 5720 5723 5725 5726 5728 5730 5732 5733 5733 5736 5739 5741 5743 5744 5745
5710 5711 5712 5712 5712 5713 5712 5712 5712 5712 5713 5712 5712 5712 5711 5714 5712 5713 5715 5718 5720 5721 5723 5725 5727 5729 5731 5734 5735 5737 5739 5739